This is the latest recevied weather packets stored in our database for station/object KF6YUA. If no packets are shown the sender has not sent any weather packets the latest 10 day(s).
| Time | Temp. | Humidity | Pressure | Rain* | Wind** | Luminosity | Snow |
|---|---|---|---|---|---|---|---|
| 1777660206 | 15.56° C | 85% | 1017.5 hPa | 0 mm | - | 478 W/m² | - |
| 1777659903 | 15.56° C | 87% | 1017.5 hPa | 0 mm | - | 423 W/m² | - |
| 1777659599 | 15° C | 87% | 1017.4 hPa | 0 mm | - | 458 W/m² | - |
| 1777659297 | 14.44° C | 88% | 1017.6 hPa | 0 mm | - | 349 W/m² | - |
| 1777658994 | 14.44° C | 88% | 1017.4 hPa | 0 mm | - | 311 W/m² | - |
| 1777658691 | 14.44° C | 89% | 1017.6 hPa | 0 mm | - | 309 W/m² | - |
| 1777658387 | 13.89° C | 91% | 1017.7 hPa | 0 mm | - | 242 W/m² | - |
| 1777658084 | 13.89° C | 91% | 1017.7 hPa | 0 mm | - | 202 W/m² | - |
| 1777657780 | 13.33° C | 92% | 1017.5 hPa | 0 mm | - | 229 W/m² | - |
| 1777657478 | 13.33° C | 94% | 1017.8 hPa | 0 mm | - | 218 W/m² | - |
| 1777657176 | 12.78° C | 93% | 1017.6 hPa | 0 mm | - | 184 W/m² | - |
| 1777656873 | 12.78° C | 94% | 1017.5 hPa | 0 mm | - | 170 W/m² | - |
| 1777656569 | 12.78° C | 93% | 1017.6 hPa | 0 mm | - | 153 W/m² | - |
| 1777656265 | 12.78° C | 95% | 1017.4 hPa | 0 mm | - | 154 W/m² | - |
| 1777655960 | 12.22° C | 96% | 1017.5 hPa | 0 mm | - | 142 W/m² | - |
| 1777655656 | 12.22° C | 96% | 1017.8 hPa | 0 mm | - | 146 W/m² | - |
| 1777655353 | 12.22° C | 98% | 1017.7 hPa | 0 mm | - | 143 W/m² | - |
| 1777655050 | 11.67° C | 98% | 1017.6 hPa | 0 mm | - | 124 W/m² | - |
| 1777654748 | 11.67° C | 99% | 1017.4 hPa | 0 mm | - | 126 W/m² | - |
| 1777654446 | 11.67° C | 99% | 1017.6 hPa | 0 mm | - | 125 W/m² | - |
| 1777654143 | 11.67° C | 99% | 1017.5 hPa | 0 mm | - | 149 W/m² | - |
| 1777653841 | 11.67° C | 99% | 1017.5 hPa | 0 mm | - | 124 W/m² | - |
| 1777653537 | 11.11° C | 99% | 1017.5 hPa | 0 mm | - | 120 W/m² | - |
| 1777653233 | 11.11° C | 99% | 1017.2 hPa | 0 mm | - | 127 W/m² | - |
| 1777652930 | 11.11° C | 99% | 1017.7 hPa | 0 mm | - | 117 W/m² | - |
* Rain latest hour (hover to see other rain measurements)
** Current wind speed in m/s (hover to see current wind gust speed)